Погода в Ильинском

Россия / Костромская область     58°56′09″N   47°22′51″E
темп.,
°C
ветер,
м/с
пор.,
м/с
влажн.,
%
обл.,
%
осадки,
мм/ч
давл.,
гПа
погр.,
м
7 мая, пт
пт700:00+10ю41392100 0.6 1008443
03:00+9ююз4149413 0.6 1008545
06:00+10ю41191100 0.0 1008498
09:00+13ююз4980100 0.0 1009799
12:00+15ююз61264100 0.2 10081504
15:00+10зсз4587100 1.3 1009407
18:00+6зсз4891100 0.6 1011577
21:00+5юз3894100 1.2 1013351
8 мая, сб
сб800:00+4юз269816 0.0 1015142
03:00+3юз24950 0.0 101788
06:00+6юз23825 0.0 1018131
09:00+11ю346099 0.0 1018794
12:00+14ююв45405 0.0 10171700
15:00+15ююв5739100 0.0 10151837
18:00+13юв3854100 0.0 1013502
21:00+9юв41373100 0.0 1012457
9 мая, вс
вс900:00+10юв51480100 0.0 1010674
03:00+11ююв61581100 0.1 1008705
06:00+10ююв51384100 0.1 1008643
09:00+11ююв61486100 0.8 10081010
12:00+11ю71490100 1.6 10091004
15:00+10ююз41289100 2.6 1012920
18:00+9зюз5986100 0.2 1015858
21:00+5зсз3989100 0.3 1018657
10 мая, пн
пн1000:00+5зсз3889100 0.0 1021687
03:00+4сз31188100 0.0 1024565
06:00+5сз36830 0.0 1026302
09:00+10зсз35545 0.0 10271146
12:00+13зсз46425 0.0 10271850
15:00+14зсз3637100 0.0 10282270
18:00+12з3652100 0.0 1028352
21:00+7юз2271100 0.0 102935
11 мая, вт
вт1100:00+8юз3969100 0.0 1029220
03:00+8юз31074100 0.0 1030294
06:00+9юз41077100 0.0 1030375
09:00+15зюз5961100 0.0 1030718
12:00+18зюз5854100 0.0 10291229
15:00+19зюз5850100 0.0 10281453
18:00+18зюз48616 0.0 1028826
21:00+12зюз398525 0.0 1029165